,,,PA_Meas_PMT16A,,PR_Meas_QMR101_102,,RH_Meas_QMH101,,SR_Meas_QMS101,,TA_Meas_QMH101,,GenWind,,GenWind,
date,time,status,PA,status,PR,status,RH,status,SR,status,TA,status,DirAvg,status,SpdAvg,
2011-12-22, 00:00:04,VALID,998.132,VALID,0,VALID,92.2726,VALID,0,VALID,24.8703,VALID,18,VALID,0.896875,
2011-12-22, 00:01:04,VALID,998.083,VALID,0,VALID,92.2726,VALID,0,VALID,24.8703,VALID,18,VALID,0.578125,
2011-12-22, 00:02:04,VALID,998.044,VALID,0,VALID,92.2955,VALID,0,VALID,24.8508,VALID,18,VALID,0.369531,
2011-12-22, 00:03:04,VALID,998.069,VALID,0,VALID,92.2879,VALID,0,VALID,24.8722,VALID,18,VALID,0.3125,
2011-12-22, 00:04:04,VALID,998.035,VALID,0,VALID,92.326,VALID,0,VALID,24.8917,VALID,18,VALID,0.40625,
2011-12-22, 00:05:04,VALID,998.028,VALID,0,VALID,92.3794,VALID,0,VALID,24.8703,VALID,18,VALID,0.535937,
2011-12-22, 00:06:04,VALID,998.092,VALID,0,VALID,92.3871,VALID,0,VALID,24.8917,VALID,17,VALID,1.69609,
2011-12-22, 00:07:04,VALID,998.131,VALID,0,VALID,92.3489,VALID,0,VALID,24.8508,VALID,14,VALID,2.34102,
2011-12-22, 00:08:04,VALID,998.135,VALID,0,VALID,92.3642,VALID,0,VALID,24.8703,VALID,1,VALID,1.38516,
2011-12-22, 00:09:04,VALID,998.143,VALID,0,VALID,92.3566,VALID,0,VALID,24.8917,VALID,355,VALID,1.88086,
2011-12-22, 00:10:04,VALID,998.163,VALID,0,VALID,92.3337,VALID,0,VALID,24.8703,VALID,341,VALID,1.9207,
2011-12-22, 00:11:04,VALID,998.161,VALID,0,VALID,92.3489,VALID,0,VALID,24.8898,VALID,336,VALID,2.10234,
2011-12-22, 00:12:04,VALID,998.153,VALID,0,VALID,92.4176,VALID,0,VALID,24.8898,VALID,344,VALID,1.93711,
2011-12-22, 00:13:04,VALID,998.155,VALID,0,VALID,92.4863,VALID,0,VALID,24.9093,VALID,351,VALID,2.24141,
2011-12-22, 00:14:04,VALID,998.13,VALID,0.5,VALID,92.6388,VALID,0,VALID,24.8898,VALID,314,VALID,1.34258,
2011-12-22, 00:15:04,VALID,998.044,VALID,0.5,VALID,92.8067,VALID,0,VALID,24.8508,VALID,9,VALID,1.73828,
2011-12-22, 00:16:04,VALID,998.045,VALID,0,VALID,92.9593,VALID,0,VALID,24.8332,VALID,297,VALID,0.755859,
2011-12-22, 00:17:04,VALID,998.02,VALID,0,VALID,93.1043,VALID,0,VALID,24.8136,VALID,320,VALID,1.07617,
2011-12-22, 00:18:04,VALID,998.007,VALID,0,VALID,93.2111,VALID,0,VALID,24.7727,VALID,326,VALID,0.795313,
2011-12-22, 00:19:04,VALID,998.022,VALID,0,VALID,93.3255,VALID,0,VALID,24.7532,VALID,341,VALID,0.561328,
2011-12-22, 00:20:04,VALID,998.008,VALID,0,VALID,93.3942,VALID,0,VALID,24.7941,VALID,340,VALID,0.890625,
2011-12-22, 00:21:04,VALID,998.008,VALID,0,VALID,93.4476,VALID,0,VALID,24.7746,VALID,4,VALID,3.30234,
2011-12-22, 00:22:04,VALID,998.019,VALID,0.5,VALID,93.4705,VALID,0,VALID,24.7727,VALID,333,VALID,1.28203,
2011-12-22, 00:23:04,VALID,998.038,VALID,0,VALID,93.4857,VALID,0,VALID,24.7922,VALID,328,VALID,1.48086,
2011-12-22, 00:24:04,VALID,998.044,VALID,0,VALID,93.501,VALID,0,VALID,24.7941,VALID,347,VALID,2.61016,
2011-12-22, 00:25:04,VALID,998.055,VALID,0.5,VALID,93.4934,VALID,0,VALID,24.7941,VALID,330,VALID,2.07188,
2011-12-22, 00:26:04,VALID,998.024,VALID,0,VALID,93.4934,VALID,0,VALID,24.7727,VALID,326,VALID,1.49727,
2011-12-22, 00:27:05,VALID,997.993,VALID,0,VALID,93.501,VALID,0,VALID,24.7532,VALID,349,VALID,1.33281,
2011-12-22, 00:28:05,VALID,997.942,VALID,0,VALID,93.501,VALID,0,VALID,24.7532,VALID,342,VALID,1.58555,
2011-12-22, 00:29:05,VALID,997.932,VALID,0,VALID,93.4781,VALID,0,VALID,24.7551,VALID,346,VALID,1.68984,
2011-12-22, 00:30:05,VALID,997.886,VALID,0,VALID,93.4552,VALID,0,VALID,24.7337,VALID,358,VALID,1.72109,
2011-12-22, 00:31:05,VALID,997.909,VALID,0,VALID,93.4247,VALID,0,VALID,24.7532,VALID,2,VALID,1.64297,
2011-12-22, 00:32:05,VALID,997.937,VALID,0,VALID,93.3637,VALID,0,VALID,24.7337,VALID,327,VALID,1.96133,
2011-12-22, 00:33:05,VALID,997.936,VALID,0,VALID,93.3331,VALID,0,VALID,24.7551,VALID,327,VALID,1.06992,
2011-12-22, 00:34:05,VALID,997.928,VALID,0,VALID,93.295,VALID,0,VALID,24.7337,VALID,344,VALID,1.53516,
2011-12-22, 00:35:05,VALID,997.939,VALID,0,VALID,93.295,VALID,0,VALID,24.7337,VALID,335,VALID,1.28555,
2011-12-22, 00:36:05,VALID,997.889,VALID,0,VALID,93.2187,VALID,0,VALID,24.6965,VALID,345,VALID,1.50625,
2011-12-22, 00:37:05,VALID,997.851,VALID,0,VALID,93.0356,VALID,0,VALID,24.6556,VALID,341,VALID,1.70313,
2011-12-22, 00:38:05,VALID,997.821,VALID,0,VALID,92.7685,VALID,0,VALID,24.638,VALID,358,VALID,1.89766,
2011-12-22, 00:39:05,VALID,997.8,VALID,0,VALID,92.5778,VALID,0,VALID,24.5989,VALID,350,VALID,1.90313,
2011-12-22, 00:40:05,VALID,997.797,VALID,0,VALID,92.4786,VALID,0,VALID,24.5775,VALID,336,VALID,1.88711,
2011-12-22, 00:41:05,VALID,997.774,VALID,0,VALID,92.4939,VALID,0,VALID,24.5775,VALID,327,VALID,1.78164,
2011-12-22, 00:42:05,VALID,997.757,VALID,0,VALID,92.5168,VALID,0,VALID,24.5599,VALID,325,VALID,2.04141,
2011-12-22, 00:43:05,VALID,997.768,VALID,0,VALID,92.5702,VALID,0,VALID,24.558,VALID,338,VALID,1.65156,
2011-12-22, 00:44:05,VALID,997.755,VALID,0,VALID,92.616,VALID,0,VALID,24.558,VALID,342,VALID,1.62266,
2011-12-22, 00:45:05,VALID,997.708,VALID,0,VALID,92.6541,VALID,0,VALID,24.5385,VALID,344,VALID,1.40508,
2011-12-22, 00:46:05,VALID,997.714,VALID,0,VALID,92.6999,VALID,0,VALID,24.5385,VALID,339,VALID,1.28086,
2011-12-22, 00:47:05,VALID,997.674,VALID,0,VALID,92.7609,VALID,0,VALID,24.5599,VALID,341,VALID,0.796484,
2011-12-22, 00:48:05,VALID,997.657,VALID,0,VALID,92.7838,VALID,0,VALID,24.5404,VALID,349,VALID,0.986328,
2011-12-22, 00:49:05,VALID,997.653,VALID,0,VALID,92.7838,VALID,0,VALID,24.5209,VALID,352,VALID,1.29922,
2011-12-22, 00:50:05,VALID,997.614,VALID,0,VALID,92.7609,VALID,0,VALID,24.5013,VALID,2,VALID,1.12812,
2011-12-22, 00:51:05,VALID,997.6,VALID,0,VALID,92.7533,VALID,0,VALID,24.48,VALID,11,VALID,1.18906,
2011-12-22, 00:52:05,VALID,997.615,VALID,0,VALID,92.7762,VALID,0,VALID,24.4818,VALID,10,VALID,1.5875,
2011-12-22, 00:53:05,VALID,997.612,VALID,0,VALID,92.7914,VALID,0,VALID,24.4623,VALID,14,VALID,1.48008,
2011-12-22, 00:54:05,VALID,997.603,VALID,0,VALID,92.822,VALID,0,VALID,24.4623,VALID,15,VALID,0.998047,
2011-12-22, 00:55:05,VALID,997.572,VALID,0,VALID,92.8983,VALID,0,VALID,24.4623,VALID,20,VALID,1.08789,
2011-12-22, 00:56:05,VALID,997.564,VALID,0,VALID,92.9517,VALID,0,VALID,24.4428,VALID,22,VALID,1.37734,
2011-12-22, 00:57:05,VALID,997.568,VALID,0,VALID,92.9745,VALID,0,VALID,24.4428,VALID,6,VALID,2.01953,
2011-12-22, 00:58:05,VALID,997.575,VALID,0,VALID,92.9135,VALID,0,VALID,24.4214,VALID,6,VALID,1.23945,
2011-12-22, 00:59:05,VALID,997.543,VALID,0,VALID,92.8754,VALID,0,VALID,24.4604,VALID,3,VALID,1.16641,
2011-12-22, 01:00:05,VALID,997.504,VALID,0.5,VALID,92.8448,VALID,0,VALID,24.4818,VALID,353,VALID,0.9625,
2011-12-22, 01:01:05,VALID,997.475,VALID,0,VALID,92.8448,VALID,0,VALID,24.4409,VALID,353,VALID,0.578125,
2011-12-22, 01:02:05,VALID,997.446,VALID,0,VALID,92.883,VALID,0,VALID,24.4409,VALID,348,VALID,0.135156,
2011-12-22, 01:03:05,VALID,997.432,VALID,0,VALID,92.9059,VALID,0,VALID,24.4409,VALID,348,VALID,0.277734,
2011-12-22, 01:04:05,VALID,997.403,VALID,0,VALID,92.9135,VALID,0,VALID,24.4428,VALID,348,VALID,0.414844,
2011-12-22, 01:05:05,VALID,997.392,VALID,0,VALID,92.9745,VALID,0,VALID,24.4428,VALID,348,VALID,0.251172,
2011-12-22, 01:06:05,VALID,997.4,VALID,0,VALID,93.0127,VALID,0,VALID,24.4623,VALID,348,VALID,0.146484,
2011-12-22, 01:07:05,VALID,997.378,VALID,0,VALID,93.0203,VALID,0,VALID,24.4409,VALID,348,VALID,0,
2011-12-22, 01:08:05,VALID,997.371,VALID,0,VALID,93.0432,VALID,0,VALID,24.4214,VALID,348,VALID,0,
2011-12-22, 01:09:05,VALID,997.344,VALID,0,VALID,93.1043,VALID,0,VALID,24.4428,VALID,348,VALID,0.258203,
2011-12-22, 01:10:05,VALID,997.355,VALID,0,VALID,93.1348,VALID,0,VALID,24.4214,VALID,348,VALID,0.171484,
2011-12-22, 01:11:05,VALID,997.358,VALID,0,VALID,93.1424,VALID,0,VALID,24.4233,VALID,348,VALID,0.388672,
2011-12-22, 01:12:05,VALID,997.377,VALID,0,VALID,93.1653,VALID,0,VALID,24.4233,VALID,348,VALID,0.595312,
2011-12-22, 01:13:05,VALID,997.366,VALID,0,VALID,93.1653,VALID,0,VALID,24.4233,VALID,348,VALID,0.521484,
2011-12-22, 01:14:05,VALID,997.376,VALID,0,VALID,93.15,VALID,0,VALID,24.4214,VALID,348,VALID,0.229687,
2011-12-22, 01:15:05,VALID,997.38,VALID,0,VALID,93.1348,VALID,0,VALID,24.4214,VALID,348,VALID,0.237109,
2011-12-22, 01:16:05,VALID,997.354,VALID,0,VALID,93.1348,VALID,0,VALID,24.4019,VALID,4,VALID,0.266406,
2011-12-22, 01:17:05,VALID,997.37,VALID,0,VALID,93.1577,VALID,0,VALID,24.4623,VALID,46,VALID,1.78633,
2011-12-22, 01:18:05,VALID,997.359,VALID,0,VALID,93.1958,VALID,0,VALID,24.4604,VALID,82,VALID,2.35,
2011-12-22, 01:19:05,VALID,997.373,VALID,0,VALID,93.1119,VALID,0,VALID,24.4214,VALID,58,VALID,2.3832,
2011-12-22, 01:20:05,VALID,997.334,VALID,0,VALID,93.0814,VALID,0,VALID,24.4233,VALID,79,VALID,0.429297,
2011-12-22, 01:21:05,VALID,997.337,VALID,0,VALID,93.0508,VALID,0,VALID,24.3824,VALID,39,VALID,1.7918,
2011-12-22, 01:22:05,VALID,997.35,VALID,0,VALID,93.0966,VALID,0,VALID,24.4019,VALID,36,VALID,2.13438,
2011-12-22, 01:23:05,VALID,997.312,VALID,0,VALID,93.1653,VALID,0,VALID,24.4214,VALID,33,VALID,1.36289,
2011-12-22, 01:24:05,VALID,997.295,VALID,0,VALID,93.1958,VALID,0,VALID,24.4409,VALID,29,VALID,2.06055,
2011-12-22, 01:25:05,VALID,997.29,VALID,0,VALID,93.1729,VALID,0,VALID,24.5013,VALID,26,VALID,2.6125,
2011-12-22, 01:26:05,VALID,997.271,VALID,0,VALID,93.1729,VALID,0,VALID,24.519,VALID,33,VALID,1.90898,
2011-12-22, 01:27:05,VALID,997.248,VALID,0,VALID,93.089,VALID,0,VALID,24.519,VALID,48,VALID,2,
2011-12-22, 01:28:05,VALID,997.238,VALID,0,VALID,92.9974,VALID,0,VALID,24.5209,VALID,46,VALID,1.09141,
2011-12-22, 01:29:05,VALID,997.219,VALID,0,VALID,92.8601,VALID,0,VALID,24.4818,VALID,34,VALID,1.70664,
2011-12-22, 01:30:05,VALID,997.172,VALID,0,VALID,92.7991,VALID,0,VALID,24.48,VALID,26,VALID,0.883594,
2011-12-22, 01:31:05,VALID,997.187,VALID,0,VALID,92.7533,VALID,0,VALID,24.4604,VALID,31,VALID,1.70352,
2011-12-22, 01:32:05,VALID,997.141,VALID,0,VALID,92.6083,VALID,0,VALID,24.4818,VALID,10,VALID,1.73555,
2011-12-22, 01:33:05,VALID,997.141,VALID,0,VALID,92.5397,VALID,0,VALID,24.5013,VALID,31,VALID,1.82266,
2011-12-22, 01:34:05,VALID,997.129,VALID,0,VALID,92.532,VALID,0,VALID,24.5013,VALID,36,VALID,1.47891,
2011-12-22, 01:35:05,VALID,997.079,VALID,0,VALID,92.5778,VALID,0,VALID,24.5209,VALID,47,VALID,1.10508,
2011-12-22, 01:36:05,VALID,997.041,VALID,0,VALID,92.6007,VALID,0,VALID,24.4995,VALID,32,VALID,1.25742,
2011-12-22, 01:37:05,VALID,997.015,VALID,0,VALID,92.6312,VALID,0,VALID,24.5013,VALID,39,VALID,0.961719,
2011-12-22, 01:38:05,VALID,996.984,VALID,0,VALID,92.677,VALID,0,VALID,24.5013,VALID,36,VALID,0.790625,
2011-12-22, 01:39:05,VALID,996.948,VALID,0,VALID,92.7151,VALID,0,VALID,24.48,VALID,52,VALID,0.834375,
2011-12-22, 01:40:05,VALID,996.899,VALID,0,VALID,92.7228,VALID,0,VALID,24.5013,VALID,52,VALID,0.829297,
2011-12-22, 01:41:05,VALID,996.879,VALID,0,VALID,92.7685,VALID,0,VALID,24.4604,VALID,63,VALID,0.887109,
2011-12-22, 01:42:05,VALID,996.837,VALID,0,VALID,92.8067,VALID,0,VALID,24.4818,VALID,77,VALID,0.907031,
2011-12-22, 01:43:05,VALID,996.815,VALID,0,VALID,92.8143,VALID,0,VALID,24.4818,VALID,91,VALID,1.24609,
2011-12-22, 01:44:05,VALID,996.779,VALID,0,VALID,92.822,VALID,0,VALID,24.4409,VALID,97,VALID,1.21016,
2011-12-22, 01:45:05,VALID,996.748,VALID,0,VALID,92.8067,VALID,0,VALID,24.4604,VALID,97,VALID,1.33047,
2011-12-22, 01:46:05,VALID,996.694,VALID,0,VALID,92.8754,VALID,0,VALID,24.4409,VALID,111,VALID,0.945703,
2011-12-22, 01:47:05,VALID,996.683,VALID,0,VALID,92.9135,VALID,0,VALID,24.4409,VALID,122,VALID,1.10859,
2011-12-22, 01:48:05,VALID,996.633,VALID,0,VALID,92.8983,VALID,0,VALID,24.4409,VALID,122,VALID,0.442187,
2011-12-22, 01:49:05,VALID,996.596,VALID,0,VALID,92.944,VALID,0,VALID,24.4214,VALID,122,VALID,0.289844,
2011-12-22, 01:50:05,VALID,996.578,VALID,0,VALID,92.9669,VALID,0,VALID,24.4214,VALID,122,VALID,0.590234,
2011-12-22, 01:51:05,VALID,996.531,VALID,0,VALID,92.9974,VALID,0,VALID,24.4214,VALID,122,VALID,0.571875,
2011-12-22, 01:52:05,VALID,996.544,VALID,0,VALID,93.0127,VALID,0,VALID,24.4019,VALID,122,VALID,0.866406,
2011-12-22, 01:53:05,VALID,996.553,VALID,0,VALID,93.0432,VALID,0,VALID,24.4037,VALID,116,VALID,0.846094,
2011-12-22, 01:54:05,VALID,996.489,VALID,0,VALID,93.0737,VALID,0,VALID,24.3824,VALID,114,VALID,0.724609,
2011-12-22, 01:55:05,VALID,996.514,VALID,0,VALID,93.0814,VALID,0,VALID,24.361,VALID,113,VALID,0.517969,
2011-12-22, 01:56:05,VALID,996.546,VALID,0,VALID,93.1043,VALID,0.104696,VALID,24.3842,VALID,113,VALID,0.625391,
2011-12-22, 01:57:05,VALID,996.555,VALID,0,VALID,93.1195,VALID,0,VALID,24.3824,VALID,113,VALID,0.346484,
2011-12-22, 01:58:05,VALID,996.563,VALID,0,VALID,93.15,VALID,0,VALID,24.3629,VALID,113,VALID,0.390625,
2011-12-22, 01:59:05,VALID,996.547,VALID,0,VALID,93.1271,VALID,0,VALID,24.3433,VALID,113,VALID,0.313672,
2011-12-22, 02:00:05,VALID,996.533,VALID,0,VALID,93.1043,VALID,0,VALID,24.3433,VALID,113,VALID,0.650391,
2011-12-22, 02:01:05,VALID,996.536,VALID,0,VALID,93.0737,VALID,0,VALID,24.3433,VALID,113,VALID,0.512891,
2011-12-22, 02:02:05,VALID,996.556,VALID,0,VALID,93.0127,VALID,0,VALID,24.3647,VALID,79,VALID,0.315234,
2011-12-22, 02:03:05,VALID,996.563,VALID,0,VALID,92.9593,VALID,0,VALID,24.3238,VALID,79,VALID,0.507031,
2011-12-22, 02:04:05,VALID,996.547,VALID,0,VALID,92.9059,VALID,0,VALID,24.3433,VALID,72,VALID,0.619922,
2011-12-22, 02:05:05,VALID,996.552,VALID,0,VALID,92.8143,VALID,0,VALID,24.3433,VALID,72,VALID,0.403906,
2011-12-22, 02:06:05,VALID,996.544,VALID,0,VALID,92.7914,VALID,0,VALID,24.3629,VALID,72,VALID,0.220703,
2011-12-22, 02:07:05,VALID,996.535,VALID,0,VALID,92.7457,VALID,0,VALID,24.3647,VALID,72,VALID,0,
2011-12-22, 02:08:05,VALID,996.537,VALID,0.5,VALID,92.7685,VALID,0,VALID,24.3433,VALID,72,VALID,0,
2011-12-22, 02:09:05,VALID,996.531,VALID,0,VALID,92.8067,VALID,0,VALID,24.3629,VALID,72,VALID,0.208203,
2011-12-22, 02:10:05,VALID,996.493,VALID,0,VALID,92.8983,VALID,0,VALID,24.3629,VALID,72,VALID,0.306641,
2011-12-22, 02:11:05,VALID,996.496,VALID,0,VALID,92.9211,VALID,0,VALID,24.3629,VALID,72,VALID,0.460547,
2011-12-22, 02:12:05,VALID,996.517,VALID,0,VALID,92.9288,VALID,0,VALID,24.3824,VALID,80,VALID,0.488281,
2011-12-22, 02:13:05,VALID,996.495,VALID,0,VALID,92.8677,VALID,0,VALID,24.3842,VALID,104,VALID,0.245703,
2011-12-22, 02:14:05,VALID,996.495,VALID,0,VALID,92.8296,VALID,0.104696,VALID,24.3842,VALID,104,VALID,0.166797,
2011-12-22, 02:15:05,VALID,996.504,VALID,0,VALID,92.822,VALID,0,VALID,24.3824,VALID,104,VALID,0.384375,
2011-12-22, 02:16:05,VALID,996.494,VALID,0,VALID,92.7838,VALID,0,VALID,24.3629,VALID,111,VALID,0.380469,
2011-12-22, 02:17:05,VALID,996.481,VALID,0,VALID,92.7075,VALID,0.104696,VALID,24.3629,VALID,111,VALID,0,
2011-12-22, 02:18:05,VALID,996.481,VALID,0,VALID,92.7151,VALID,0,VALID,24.3433,VALID,111,VALID,0,
2011-12-22, 02:19:05,VALID,996.458,VALID,0.5,VALID,92.7228,VALID,0,VALID,24.3433,VALID,111,VALID,0,
2011-12-22, 02:20:05,VALID,996.459,VALID,0,VALID,92.7609,VALID,0.104696,VALID,24.3433,VALID,111,VALID,0.208984,
2011-12-22, 02:21:05,VALID,996.455,VALID,0,VALID,92.7685,VALID,0,VALID,24.3452,VALID,111,VALID,0.484766,
2011-12-22, 02:22:05,VALID,996.473,VALID,0,VALID,92.7762,VALID,0,VALID,24.3433,VALID,111,VALID,0.369141,
2011-12-22, 02:23:05,VALID,996.463,VALID,0,VALID,92.7457,VALID,0,VALID,24.3238,VALID,111,VALID,0.115234,
2011-12-22, 02:24:05,VALID,996.479,VALID,0,VALID,92.7075,VALID,0,VALID,24.3238,VALID,111,VALID,0,
2011-12-22, 02:25:05,VALID,996.451,VALID,0.5,VALID,92.7533,VALID,0,VALID,24.3257,VALID,111,VALID,0.288281,
2011-12-22, 02:26:05,VALID,996.495,VALID,0,VALID,92.7533,VALID,0,VALID,24.2848,VALID,110,VALID,0.449219,
2011-12-22, 02:27:05,VALID,996.521,VALID,0,VALID,92.7685,VALID,0,VALID,24.2653,VALID,91,VALID,0.617578,
2011-12-22, 02:28:05,VALID,996.463,VALID,0,VALID,92.6312,VALID,0,VALID,24.2653,VALID,69,VALID,0.738281,
2011-12-22, 02:29:05,VALID,996.496,VALID,0,VALID,92.616,VALID,0,VALID,24.3257,VALID,57,VALID,0.458594,
2011-12-22, 02:30:05,VALID,996.511,VALID,0,VALID,92.6007,VALID,0,VALID,24.3062,VALID,57,VALID,0.647656,
2011-12-22, 02:31:05,VALID,996.518,VALID,0,VALID,92.5549,VALID,0,VALID,24.3257,VALID,57,VALID,0.731641,
2011-12-22, 02:32:05,VALID,996.529,VALID,0.5,VALID,92.4939,VALID,0,VALID,24.3257,VALID,48,VALID,0.487891,
2011-12-22, 02:33:05,VALID,996.539,VALID,0,VALID,92.4634,VALID,0,VALID,24.3257,VALID,43,VALID,0.778125,
2011-12-22, 02:34:05,VALID,996.562,VALID,0,VALID,92.5015,VALID,0,VALID,24.3043,VALID,61,VALID,0.828516,
2011-12-22, 02:35:05,VALID,996.546,VALID,0,VALID,92.5702,VALID,0,VALID,24.3043,VALID,52,VALID,0.415625,
2011-12-22, 02:36:05,VALID,996.548,VALID,0,VALID,92.7304,VALID,0,VALID,24.3238,VALID,9,VALID,0.589453,
2011-12-22, 02:37:05,VALID,996.54,VALID,0,VALID,92.9211,VALID,0,VALID,24.3433,VALID,332,VALID,0.660937,
2011-12-22, 02:38:05,VALID,996.557,VALID,0.5,VALID,93.0127,VALID,0,VALID,24.3238,VALID,303,VALID,0.730469,
2011-12-22, 02:39:05,VALID,996.563,VALID,0,VALID,93.1043,VALID,0,VALID,24.3238,VALID,307,VALID,0.790625,
2011-12-22, 02:40:05,VALID,996.56,VALID,0,VALID,93.2187,VALID,0,VALID,24.3257,VALID,307,VALID,0.664063,
2011-12-22, 02:41:05,VALID,996.504,VALID,0,VALID,93.3103,VALID,0,VALID,24.3043,VALID,281,VALID,0.790625,
2011-12-22, 02:42:05,VALID,996.503,VALID,0,VALID,93.356,VALID,0,VALID,24.3062,VALID,283,VALID,0.396094,
2011-12-22, 02:43:05,VALID,996.542,VALID,0,VALID,93.4323,VALID,0,VALID,24.2848,VALID,283,VALID,0.139453,
2011-12-22, 02:44:05,VALID,996.506,VALID,0.5,VALID,93.4476,VALID,0,VALID,24.3062,VALID,284,VALID,0.697656,
2011-12-22, 02:45:05,VALID,996.512,VALID,0,VALID,93.4934,VALID,0,VALID,24.2866,VALID,285,VALID,0.153906,
2011-12-22, 02:46:05,VALID,996.499,VALID,0,VALID,93.5544,VALID,0,VALID,24.2866,VALID,214,VALID,0.776953,
2011-12-22, 02:47:05,VALID,996.497,VALID,0,VALID,93.562,VALID,0,VALID,24.2653,VALID,193,VALID,0.846094,
2011-12-22, 02:48:05,VALID,996.539,VALID,0,VALID,93.5773,VALID,0,VALID,24.2671,VALID,193,VALID,0.448047,
2011-12-22, 02:49:05,VALID,996.616,VALID,0,VALID,93.6078,VALID,0,VALID,24.2653,VALID,193,VALID,0.572266,
2011-12-22, 02:50:05,VALID,996.631,VALID,0,VALID,93.5849,VALID,0,VALID,24.2263,VALID,181,VALID,0.556641,
2011-12-22, 02:51:05,VALID,996.646,VALID,0,VALID,93.5773,VALID,0,VALID,24.2263,VALID,181,VALID,0.452344,
2011-12-22, 02:52:05,VALID,996.633,VALID,0.5,VALID,93.5315,VALID,0,VALID,24.2281,VALID,181,VALID,0.648438,
2011-12-22, 02:53:05,VALID,996.679,VALID,0,VALID,93.4934,VALID,0,VALID,24.2476,VALID,181,VALID,0.284375,
2011-12-22, 02:54:05,VALID,996.668,VALID,0,VALID,93.4934,VALID,0,VALID,24.2458,VALID,181,VALID,0.271094,
2011-12-22, 02:55:05,VALID,996.681,VALID,0,VALID,93.4552,VALID,0,VALID,24.2263,VALID,181,VALID,0.258203,
2011-12-22, 02:56:05,VALID,996.686,VALID,0,VALID,93.4552,VALID,0,VALID,24.2458,VALID,181,VALID,0.109375,
2011-12-22, 02:57:05,VALID,996.684,VALID,0,VALID,93.4476,VALID,0,VALID,24.2458,VALID,181,VALID,0.0546875,
2011-12-22, 02:58:05,VALID,996.667,VALID,0,VALID,93.4552,VALID,0,VALID,24.2458,VALID,181,VALID,0,
2011-12-22, 02:59:05,VALID,996.666,VALID,0,VALID,93.4705,VALID,0,VALID,24.2671,VALID,181,VALID,0,
2011-12-22, 03:00:05,VALID,996.671,VALID,0,VALID,93.5163,VALID,0,VALID,24.2848,VALID,228,VALID,0.635156,
2011-12-22, 03:01:05,VALID,996.654,VALID,0,VALID,93.5544,VALID,0,VALID,24.2848,VALID,229,VALID,0.490625,
2011-12-22, 03:02:05,VALID,996.696,VALID,0,VALID,93.562,VALID,0,VALID,24.2653,VALID,248,VALID,0.527344,
2011-12-22, 03:03:05,VALID,996.676,VALID,0,VALID,93.6002,VALID,0,VALID,24.3062,VALID,254,VALID,0.573828,
2011-12-22, 03:04:05,VALID,996.728,VALID,0,VALID,93.6002,VALID,0,VALID,24.3043,VALID,272,VALID,0.733203,
2011-12-22, 03:05:05,VALID,996.715,VALID,0,VALID,93.646,VALID,0,VALID,24.3043,VALID,287,VALID,0.628906,
2011-12-22, 03:06:05,VALID,996.723,VALID,0,VALID,93.6765,VALID,0,VALID,24.3043,VALID,274,VALID,0.31875,
2011-12-22, 03:07:05,VALID,996.715,VALID,0,VALID,93.707,VALID,0,VALID,24.3257,VALID,275,VALID,0.432813,
2011-12-22, 03:08:05,VALID,996.719,VALID,0,VALID,93.7223,VALID,0,VALID,24.3062,VALID,278,VALID,0.476172,
2011-12-22, 03:09:05,VALID,996.727,VALID,0,VALID,93.7375,VALID,0,VALID,24.3062,VALID,278,VALID,0.316016,
2011-12-22, 03:10:05,VALID,996.755,VALID,0,VALID,93.7375,VALID,0,VALID,24.3062,VALID,278,VALID,0.0105469,
2011-12-22, 03:11:05,VALID,996.758,VALID,0,VALID,93.7604,VALID,0,VALID,24.2848,VALID,278,VALID,0,
2011-12-22, 03:12:05,VALID,996.731,VALID,0,VALID,93.7833,VALID,0,VALID,24.2653,VALID,278,VALID,0,
2011-12-22, 03:13:04,VALID,996.714,VALID,0,VALID,93.7757,VALID,0,VALID,24.2653,VALID,278,VALID,0,
2011-12-22, 03:14:04,VALID,996.695,VALID,0,VALID,93.7985,VALID,0,VALID,24.2866,VALID,278,VALID,0,
2011-12-22, 03:15:04,VALID,996.685,VALID,0,VALID,93.7909,VALID,0,VALID,24.2848,VALID,278,VALID,0,
2011-12-22, 03:16:04,VALID,996.737,VALID,0,VALID,93.8062,VALID,0,VALID,24.2653,VALID,278,VALID,0,
2011-12-22, 03:17:04,VALID,996.701,VALID,0,VALID,93.8062,VALID,0,VALID,24.2458,VALID,278,VALID,0,
2011-12-22, 03:18:04,VALID,996.689,VALID,0,VALID,93.8062,VALID,0,VALID,24.2458,VALID,278,VALID,0,
2011-12-22, 03:19:04,VALID,996.694,VALID,0,VALID,93.7909,VALID,0,VALID,24.2476,VALID,278,VALID,0,
2011-12-22, 03:20:04,VALID,996.69,VALID,0,VALID,93.8138,VALID,0,VALID,24.2458,VALID,278,VALID,0,
2011-12-22, 03:21:04,VALID,996.676,VALID,0,VALID,93.8062,VALID,0,VALID,24.2458,VALID,278,VALID,0,
2011-12-22, 03:22:04,VALID,996.682,VALID,0,VALID,93.8443,VALID,0,VALID,24.2671,VALID,278,VALID,0,
2011-12-22, 03:23:04,VALID,996.663,VALID,0,VALID,93.8214,VALID,0,VALID,24.2458,VALID,278,VALID,0,
2011-12-22, 03:24:04,VALID,996.659,VALID,0,VALID,93.8214,VALID,0,VALID,24.2263,VALID,278,VALID,0,
2011-12-22, 03:25:04,VALID,996.681,VALID,0,VALID,93.8214,VALID,0,VALID,24.2476,VALID,278,VALID,0,
2011-12-22, 03:26:04,VALID,996.68,VALID,0,VALID,93.7909,VALID,0,VALID,24.2067,VALID,278,VALID,0,
2011-12-22, 03:27:04,VALID,996.626,VALID,0,VALID,93.7833,VALID,0,VALID,24.2281,VALID,278,VALID,0,
2011-12-22, 03:28:04,VALID,996.59,VALID,0,VALID,93.7909,VALID,0,VALID,24.2281,VALID,278,VALID,0,
2011-12-22, 03:29:04,VALID,996.547,VALID,0,VALID,93.8138,VALID,0,VALID,24.2476,VALID,278,VALID,0,
2011-12-22, 03:30:04,VALID,996.532,VALID,0,VALID,93.7985,VALID,0,VALID,24.2067,VALID,278,VALID,0.0191406,
2011-12-22, 03:31:04,VALID,996.519,VALID,0,VALID,93.7757,VALID,0,VALID,24.2086,VALID,278,VALID,0.308203,
2011-12-22, 03:32:04,VALID,996.514,VALID,0,VALID,93.768,VALID,0,VALID,24.1872,VALID,278,VALID,0.312109,
2011-12-22, 03:33:04,VALID,996.542,VALID,0,VALID,93.768,VALID,0,VALID,24.2281,VALID,278,VALID,0.227344,
2011-12-22, 03:34:04,VALID,996.565,VALID,0,VALID,93.7757,VALID,0,VALID,24.2476,VALID,278,VALID,0.134375,
2011-12-22, 03:35:04,VALID,996.574,VALID,0,VALID,93.7604,VALID,0,VALID,24.2281,VALID,278,VALID,0,
2011-12-22, 03:36:04,VALID,996.575,VALID,0,VALID,93.7375,VALID,0,VALID,24.2281,VALID,215,VALID,0.219141,
2011-12-22, 03:37:04,VALID,996.607,VALID,0,VALID,93.7451,VALID,0,VALID,24.2458,VALID,141,VALID,1.25039,
2011-12-22, 03:38:04,VALID,996.577,VALID,0,VALID,93.7299,VALID,0,VALID,24.2458,VALID,134,VALID,1.54883,
2011-12-22, 03:39:04,VALID,996.58,VALID,0,VALID,93.6231,VALID,0,VALID,24.2281,VALID,128,VALID,1.63281,
2011-12-22, 03:40:04,VALID,996.613,VALID,0,VALID,93.4781,VALID,0,VALID,24.2263,VALID,129,VALID,1.76602,
2011-12-22, 03:41:04,VALID,996.593,VALID,0,VALID,93.3484,VALID,0,VALID,24.2476,VALID,129,VALID,1.22695,
2011-12-22, 03:42:04,VALID,996.568,VALID,0,VALID,93.2187,VALID,0,VALID,24.2067,VALID,132,VALID,1.33164,
2011-12-22, 03:43:04,VALID,996.597,VALID,0,VALID,93.0661,VALID,0,VALID,24.2067,VALID,126,VALID,1.42383,
2011-12-22, 03:44:04,VALID,996.579,VALID,0,VALID,92.9135,VALID,0,VALID,24.2086,VALID,124,VALID,0.839453,
2011-12-22, 03:45:04,VALID,996.597,VALID,0,VALID,92.8372,VALID,0,VALID,24.1872,VALID,119,VALID,0.742188,
2011-12-22, 03:46:04,VALID,996.598,VALID,0,VALID,92.7533,VALID,0,VALID,24.1872,VALID,119,VALID,0.846484,
2011-12-22, 03:47:04,VALID,996.596,VALID,0,VALID,92.6617,VALID,0,VALID,24.1891,VALID,119,VALID,0.780859,